Hourly Data Report for June 08, 2003

SHERBROOKE A
QUEBEC

45°26'00.000" N
71°41'00.000" W
241.40 m
7028124
71610
YSC

Download Data

Hourly Data (June 2003)
Hourly Data Report for June 8, 2003
TIME
LST
Temp Definition
°C
Dew Point Definition
°C
Rel Hum Definition
%
Precip. Amount Definition
mm

Wind Dir Definition
10's deg

Wind Spd Definition
km/h
Visibility Definition
km
Stn Press Definition
kPa
Hmdx Definition


Wind Chill Definition


Weather Definition


00:00 12.6 11.9 95   11 4 6.4 98.31      
01:00 12.1 11.6 97     0 1.1 98.25      
02:00 11.9 11.6 98     0 6.4 98.24      
03:00 10.1 9.8 98   8 4 0.3 98.23      
04:00 10.7 10.4 98   9 4 5.6 98.24      
05:00 10.9 10.6 98   12 4 6.4 98.29      
06:00 12.8 12.2 96   11 4 11.3 98.34      
07:00 16.0 13.8 87   27 4 24.1 98.34     Mainly Clear
08:00 17.4 13.2 76     0 24.1 98.33     Mainly Clear
09:00 20.1 13.9 67   7 4 24.1 98.31     Mainly Clear
10:00 21.2 12.8 59   16 4 24.1 98.29     Mainly Clear
11:00 22.4 12.6 54   14 6 24.1 98.25 25   Mainly Clear
12:00 23.6 13.7 54   20 6 24.1 98.22 27   Mainly Clear
13:00 22.8 12.1 51   21 7 24.1 98.19 25   Mostly Cloudy
14:00 22.2 13.1 56   10 4 24.1 98.19 25   Mostly Cloudy
15:00 23.6 13.1 52   12 6 24.1 98.16 26   Mainly Clear
16:00 24.5 12.9 48   25 9 24.1 98.11 27   Mainly Clear
17:00 23.7 12.4 49   14 11 15.0 98.07 26    
18:00 23.3 12.1 49   18 11 15.0 98.09 26    
19:00 20.5 12.2 59   16 7 15.0 98.09      
20:00 18.5 12.2 67   17 7 15.0 98.14      
21:00 16.9 12.0 73   12 9 15.0 98.22      
22:00 16.0 12.1 78   13 11 15.0 98.20      
23:00 14.9 12.1 83   11 7 15.0 98.18      

Notes on Data Quality.

Legend

  • E = Estimated
  • M = Missing
  • NA = Not Available*
  • [empty] = Indicates an unobserved value
Date modified: